Flag for Saudi Arabia Weather past 2 weeks in Dammam, Saudi Arabia

Now
46 °F

Fog.


Feels Like: 46 °F
Forecast: 51 / 70 °F
Wind: 2 mph from North

Location: King Fahd International Airport

Current Time: Jan 26, 2015 at 2:29:18 AM

Latest Report: Jan 26, 2015 at 2:00 AM


Visibility: 0 mi

Pressure: 30.21 "Hg

Humidity: 93%

Dew point: 45 °F

Location of DammamLocation

Historic Weather in Dammam — Graph

°F

Dammam temperature yesterday

Maximum temperature yesterday: 73 °F (at 2:00 PM)
Minimum temperature yesterday: 46 °F (at 4:00 AM)
Average temperature yesterday: 59 °F

Past Weeks' High & Low Weather Summary

 TemperatureHumidityPressure
High73 °F (Jan 16, 2:00 PM)88% (Jan 17, 12:00 AM)30.36 "Hg (Jan 17, 12:00 AM)
Low43 °F (Jan 11, 7:00 AM)6% (Jan 11, 1:00 PM)30.01 "Hg (Jan 17, 3:00 PM)
Average56 °F54%30.17 "Hg
* Reported Jan 11 1:00 AM — Jan 26 1:03 AM, Dammam, Weather by CustomWeather, © 2014

Note: Actual official high and low records may vary slightly from our data, if they occured in-between our weather recording intervals... More about our weather records

Advertising

Dammam weather history for previous 24 hours

 ConditionsComfort  
Time TempWeatherWind HumidityBarometerVisibility
1:03 AM
Jan 26
52 °FFog.3 mph88%30.21 "Hg1 mi
12:00 AM55 °FFog.2 mph88%30.24 "Hg2 mi
11:00 PM
Jan 25
54 °FFog.2 mph88%30.24 "Hg2 mi
10:00 PM57 °FFog.No wind82%30.27 "Hg3 mi
9:00 PM57 °FClear.3 mph82%30.27 "Hg4 mi
8:00 PM59 °FClear.3 mph77%30.24 "Hg10 mi
7:00 PM63 °FClear.6 mph68%30.24 "Hg10 mi
6:00 PM64 °FClear.8 mph52%30.21 "Hg10 mi
5:00 PM70 °FSunny.9 mph33%30.18 "Hg10 mi
4:00 PM72 °FSunny.7 mph29%30.18 "Hg10 mi
3:00 PM72 °FSunny.7 mph31%30.18 "Hg10 mi
2:00 PM73 °FSunny.5 mph22%30.18 "Hg10 mi
1:00 PM72 °FSunny.6 mph41%30.21 "Hg10 mi
12:00 PM68 °FSunny.5 mph43%30.24 "Hg5 mi
11:00 AM66 °FSunny.5 mph56%30.24 "Hg5 mi
10:00 AM63 °FSunny.2 mph64%30.27 "Hg4 mi
9:00 AM57 °FSunny.2 mph72%30.27 "Hg2 mi
8:00 AM52 °FFog.2 mph82%30.27 "Hg2 mi
7:00 AM46 °FFog.2 mph87%30.24 "Hg2 mi
6:00 AM46 °FFog.No wind87%30.21 "Hg3 mi
5:00 AM46 °FClear.No wind82%30.21 "Hg4 mi
4:00 AM46 °FClear.No wind82%30.18 "Hg4 mi
3:00 AM48 °FClear.No wind82%30.18 "Hg5 mi
2:00 AM48 °FClear.No wind82%30.18 "Hg5 mi
Weather by CustomWeather, © 2014

See weather overviewHow to use our weather pages